Zurück zum Katalog

OV1-14

AktivMilitärHEO
NORAD 3174·PAYLOAD·🇺🇸 United States

Gestartet Apr 6, 1968 von Vandenberg Space Force Base

Loading…

Nächste Überflüge (nächste 24 Stunden)

TLE

AktuellSource: Space-Track

Epoche: Sep 13, 2026, 04:09 UTC

1 03174U 68026B   26256.17354406  .00000109  00000-0  19331-3 0  9998
2 03174  99.9939  26.4721 4011787 234.8482 333.1287  6.96775230482440

Verfolge OV1-14 in Echtzeit mit AllMySat

Download on the App Store